Location: Coopersdale
(40.3556°N, 78.9372°W)
Time: 08:12:56
(UTC+00:00)

Tiros 1 - Pass Details

Date: 29 January 2021
Orbit: 630 x 664 km, 48.4° (Epoch: 05 March)

Event Time Altitude Azimuth Distance (km) Brightness Sun altitude
Rises 00:28:35 0° 290° (WNW) 2,929 11.6 -22.7°
Reaches altitude 10° 00:31:09 10° 301° (WNW) 2,016 10.4 -23.2°
Enters shadow 00:35:09 30° 1° (N) 1,137 8.3 -24.0°
